Regional Weather Roundup
Issued by NWS Kansas City/Pleasant Hill, MO

Home | Current Version | Previous Version | Graphics & Text | Print | Product List | Glossary Off
Versions: 1 2 3 4 5 6 7 8 9 10 11 12 13 14 15 16 17 18 19 20 21 22 23 24 25 26 27 28 29 30 31 32 33 34 35 36 37 38 39 40 41 42 43 44 45 46 47 48 49 50

000
ASUS43 KEAX 270204
RWREAX

WEATHER ROUNDUP FOR EASTERN KANSAS AND NORTHWEST MISSOURI
NATIONAL WEATHER SERVICE KANSAS CITY/PLEASANT HILL MO
800 PM CST MON JAN 26 2015

KSZ040-057-103>105-MOZ028-029-037-043-270300-
...KANSAS CITY METROPOLITAN AREA...

CITY           SKY/WX    TMP DP  RH WIND       PRES   REMARKS
K.C. INTL      CLEAR     48  33  56 NW7       30.00R
K.C. DOWNTOWN  CLEAR     49  32  52 CALM      29.99R
LEES SUMMIT    CLEAR     50  32  50 NW7       29.99R
OLATHE - IXD   CLEAR     49  31  49 NW6       30.01R
OLATHE - OJC   CLEAR     50  32  50 NW5       29.99R
LAWRENCE       CLEAR     34  26  72 N5        30.01R WCI  30

$$

MOZ001>008-011>017-020>025-030>033-038>040-044>046-053-054-270300-
...NORTHERN AND CENTRAL MISSOURI...

CITY           SKY/WX    TMP DP  RH WIND       PRES   REMARKS
ST. JOSEPH     CLEAR     36  29  75 CALM      30.00R
MOSBY          CLEAR     50  32  50 NW6       29.98R
WARRENSBURG    CLEAR     46  32  57 W6        29.98R
WHITEMAN AFB   CLEAR     49  34  55 NW10      29.96R
CLINTON        CLEAR     45  36  70 W6        29.99R
SEDALIA        CLEAR     45  33  63 W7        29.96S
WARSAW         NOT AVBL
MARSHALL       CLEAR     48  37  66 NW5       29.96R
CHILLICOTHE      N/A     46  34  62 NW3       29.96R
MOBERLY        CLEAR     41  32  70 W8        29.92S
KIRKSVILLE     CLEAR     43  36  76 NW12      29.92R

$$

MOZ041-047>049-056>058-063>065-088>090-097-270300-
...EASTERN AND SOUTHERN MISSOURI...

CITY           SKY/WX    TMP DP  RH WIND       PRES   REMARKS
ST. LOUIS INTL MOCLDY    34  27  75 SE3       29.92S
SPIRIT OF STL  CLEAR     31  27  85 CALM      29.91R
COLUMBIA       CLEAR     44  35  70 W8        29.92S
JEFFERSON CITY CLEAR     42  34  73 NW3       29.94R
MEXICO         CLEAR     43  37  81 W9        29.91R
HANNIBAL       CLOUDY    45  34  65 W5        29.89S
ROLLA          CLEAR     44  34  67 W8        29.91R
LEBANON        CLEAR     46  34  61 W8        29.96R
OSAGE BEACH    CLEAR     45  34  65 W5        29.95S
SPRINGFIELD    CLEAR     39  32  76 CALM      29.98R
BRANSON        CLEAR     48  32  53 W3        29.99S
NEVADA         CLEAR     50  36  57 NW3       30.01R
JOPLIN         CLEAR     49  34  56 MISG      30.01R
WEST PLAINS    CLEAR     49  33  54 W9        29.94R

$$

IAZ060-094-KSZ022-034>040-054-083-096-NEZ052-066-093-270300-
...KANSAS...SOUTHEAST NEBRASKA AND IOWA...

CITY           SKY/WX    TMP DP  RH WIND       PRES   REMARKS
TOPEKA         CLEAR     49  29  46 NW5       30.01S
MANHATTAN      CLEAR     43  28  55 W3        30.03R
EMPORIA        CLEAR     48  33  56 W7        30.02R
CHANUTE        CLEAR     48  35  60 W7        30.02R
WICHITA        CLEAR     54  34  46 NW3       30.04S
OMAHA          PTCLDY    44  34  67 NW8       29.99S
LINCOLN        CLEAR     42  29  59 NW6       30.04R
FALLS CITY     CLEAR     42  30  62 W9        30.00R
LAMONI         CLEAR     42  34  73 NW12      29.94R
DES MOINES     MOCLDY    45  36  70 NW9       29.95R

$$



USA.gov is the U.S. government's official web portal to all federal, state and local government web resources and services.